WetterOnline ( https://www.wetteronline.ch )

Wetter aktuell Ulm

Aktuelles Wetter: Ulm-Mähringen (592m)

6-stündlich | Neueste Meldungen
Ortszeit Temperatur Wetter
So, 25.10. 19:00 8.4° C wolkig
So, 25.10. 13:00 11.2° C fast wolkenlos
So, 25.10. 7:00 2.9° C Nebel
So, 25.10. 2:00 4.3° C Nebel
Sa, 24.10. 20:00 8.9° C wolkenlos
Sa, 24.10. 14:00 13.9° C bedeckt
Sa, 24.10. 8:00 10.7° C leichter Regen
Sa, 24.10. 2:00 11.5° C bedeckt
Ortszeit Temperatur Wetter
So, 25.10. 23:30 8.4° C wolkig
So, 25.10. 23:20 8.4° C wolkig
So, 25.10. 23:10 7.3° C wolkig
So, 25.10. 23:00 7.7° C wolkig
So, 25.10. 22:50 7.7° C wolkig
So, 25.10. 22:40 7.3° C wolkig
So, 25.10. 22:30 8.2° C bewölkt
So, 25.10. 22:00 8.2° C bedeckt
So, 25.10. 21:30 8.0° C bedeckt
So, 25.10. 21:00 8.5° C bedeckt
So, 25.10. 20:30 8.0° C bedeckt
Ortszeit Relative Feuchte Sichtweite
So, 25.10. 19:00 95% 30 km
So, 25.10. 13:00 82% 23 km
So, 25.10. 7:00 99% 100 m
So, 25.10. 2:00 99% 0.6 km
Sa, 24.10. 20:00 90% 55 km
Sa, 24.10. 14:00 75% >70 km
Sa, 24.10. 8:00 97% 25 km
Sa, 24.10. 2:00 94% 27 km
Ortszeit Relative Feuchte Sichtweite
So, 25.10. 23:30 93% 30 km
So, 25.10. 23:20 93% -
So, 25.10. 23:10 97% -
So, 25.10. 23:00 97% 28 km
So, 25.10. 22:50 97% -
So, 25.10. 22:40 97% -
So, 25.10. 22:30 93% 35 km
So, 25.10. 22:00 96% 40 km
So, 25.10. 21:30 96% 35 km
So, 25.10. 21:00 93% 45 km
So, 25.10. 20:30 97% 27 km
Ortszeit Niederschlagsmenge Niederschlagsart
So, 25.10. 19:00 0.0 l/m2 in 12 Std. -
So, 25.10. 13:00 0.0 l/m2 in 6 Std. -
So, 25.10. 7:00 0.0 l/m2 in 12 Std. -
So, 25.10. 2:00 0.0 l/m2 in 6 Std. -
Sa, 24.10. 20:00 0.1 l/m2 in 12 Std. -
Sa, 24.10. 14:00 0.1 l/m2 in 6 Std. Regen
Sa, 24.10. 8:00 10 l/m2 in 12 Std. Regen
Sa, 24.10. 2:00 0.2 l/m2 in 6 Std. Regen
Ortszeit Niederschlagsmenge Niederschlagsart
So, 25.10. 23:30 0.0 l/m2 in 1 Std. -
So, 25.10. 23:20 keine Meldung -
So, 25.10. 23:10 keine Meldung -
So, 25.10. 23:00 0.0 l/m2 in 1 Std. -
So, 25.10. 22:50 keine Meldung -
So, 25.10. 22:40 keine Meldung -
So, 25.10. 22:30 0.0 l/m2 in 1 Std. -
So, 25.10. 22:00 0.0 l/m2 in 1 Std. -
So, 25.10. 21:30 0.0 l/m2 in 1 Std. -
So, 25.10. 21:00 0.0 l/m2 in 1 Std. -
So, 25.10. 20:30 0.0 l/m2 in 1 Std. -
Ortszeit Stärke Spitze Richtung
km/h Bft. km/h Grad Sektor
So, 25.10. 19:00 7 2 25 270° W
So, 25.10. 13:00 13 3 20 170° S
So, 25.10. 7:00 4 1 11 180° S
So, 25.10. 2:00 2 1 9 260° W
Sa, 24.10. 20:00 6 1 30 200° S
Sa, 24.10. 14:00 11 2 29 220° SW
Sa, 24.10. 8:00 7 2 22 220° SW
Sa, 24.10. 2:00 14 3 22 220° SW
Ortszeit Stärke Spitze Richtung
km/h Bft. km/h Grad Sektor
So, 25.10. 23:30 4 1 4 150° SO
So, 25.10. 23:20 4 1 - 150° SO
So, 25.10. 23:10 2 1 - 260° W
So, 25.10. 23:00 0 0 11 - -
So, 25.10. 22:50 0 0 - 270° W
So, 25.10. 22:40 4 1 - 280° W
So, 25.10. 22:30 6 1 11 170° S
So, 25.10. 22:00 0 0 7 - -
So, 25.10. 21:30 4 1 7 200° S
So, 25.10. 21:00 4 1 7 210° SW
So, 25.10. 20:30 4 1 7 250° W
Ortszeit Untergrenze Bedeckung Gattung
total tief tief mittel hoch
So, 25.10. 19:00 7200 m 8/8 0/8 - - -
So, 25.10. 13:00 9000 m 2/8 0/8 - - -
So, 25.10. 7:00 <30 m 8/8 0/8 - - -
So, 25.10. 2:00 <30 m 3/8 0/8 - - -
Sa, 24.10. 20:00 - 0/8 0/8 - - -
Sa, 24.10. 14:00 1500 m 8/8 8/8 - - -
Sa, 24.10. 8:00 30 m 8/8 8/8 - - -
Sa, 24.10. 2:00 210 m 8/8 8/8 - - -
Ortszeit Bedeckungsgrad in Achtel und Wolkenuntergrenze
So, 25.10. 23:30 3(2700m) 8(6300m) 8(8100m)
So, 25.10. 23:20 3(2700m) 8(6300m) 8(8100m)
So, 25.10. 23:10 1(2700m) 8(6600m) 8(8100m)
So, 25.10. 23:00 2(2700m) 7(4800m) 7(6300m)
So, 25.10. 22:50 2(2700m) 7(4800m) 7(6300m)
So, 25.10. 22:40 4(2700m) 7(5100m) 7(6600m)
So, 25.10. 22:30 6(3000m) 8(6600m) 7(6600m)
So, 25.10. 22:00 8(3000m)
So, 25.10. 21:30 8(3300m) 8(3600m)
So, 25.10. 21:00 8(3600m)
So, 25.10. 20:30 8(3600m) 8(7500m)
Ortszeit Luftdruck NN (hPa) Tendenz (hPa in 3 Std.)
So, 25.10. 19:00 1009 + 0,1
So, 25.10. 13:00 1010 - 1,7
So, 25.10. 7:00 1015 - 1,0
So, 25.10. 2:00 1017 - 1,7
Sa, 24.10. 20:00 1018 - 0,2
Sa, 24.10. 14:00 1018 - 0,5
Sa, 24.10. 8:00 1018 + 1,1
Sa, 24.10. 2:00 1016 + 0,3
Ortszeit Luftdruck NN (hPa) Tendenz (hPa in 3 Std.)
So, 25.10. 23:30 1006 - 2,0
So, 25.10. 23:20 1006 keine Meldung
So, 25.10. 23:10 1007 keine Meldung
So, 25.10. 23:00 1007 - 1,7
So, 25.10. 22:50 1007 keine Meldung
So, 25.10. 22:40 1008 keine Meldung
So, 25.10. 22:30 1007 - 1,4
So, 25.10. 22:00 1008 - 0,7
So, 25.10. 21:30 1008 - 0,5
So, 25.10. 21:00 1008 - 0,1
So, 25.10. 20:30 1009 + 0,7
Ortszeit Schneehöhe (cm)
So, 25.10. 19:00 0
So, 25.10. 13:00 0
So, 25.10. 7:00 0
So, 25.10. 2:00 0
Sa, 24.10. 20:00 0
Sa, 24.10. 14:00 0
Sa, 24.10. 8:00 0
Sa, 24.10. 2:00 0
Ortszeit Schneehöhe (cm)
So, 25.10. 23:30 0
So, 25.10. 23:20 0
So, 25.10. 23:10 0
So, 25.10. 23:00 0
So, 25.10. 22:50 0
So, 25.10. 22:40 0
So, 25.10. 22:30 0
So, 25.10. 22:00 0
So, 25.10. 21:30 0
So, 25.10. 21:00 0
So, 25.10. 20:30 0
Link zu dieser Seite / Seite empfehlen

Das Wetter in ...